Location: ???????
(55.4362°N, 38.1183°E)
Time: 17:35:54
(UTC+00:00)

Cosmos 2333 Rocket - Pass Details

Date: 24 October 2021
Orbit: 837 x 865 km, 70.8° (Epoch: 04 December)

Event Time Altitude Azimuth Distance (km) Brightness Sun altitude
Exits shadow 00:01:03 21° 353° (N) 1,826 4.1 -35.3°
Maximum altitude 00:03:31 29° 32° (NNE) 1,541 4.0 -35.1°
Drops below altitude 10° 00:08:29 10° 91° (E) 2,508 5.2 -34.5°
Sets 00:11:18 0° 103° (ESE) 3,444 5.9 -34.2°
